www.pogodaiklimat.ru

Погода и климат >> Архив погоды >> Таиланд >> Nongbualamphu


ПОГОДА в Nongbualamphu

  • Прогноз погоды в Nongbualamphu
  • Монитор погоды в Nongbualamphu
  • Климат города

АРХИВ ПОГОДЫ в Nongbualamphu

Время (UTC), дата Ветер
(напр.,м/с)
 
Видим.   Явления Облачность Т
(С)
Тd
(С)
f
(%)
Тe
(С)
Тes
(С)
Комфортность P
(гПа)
Po
(гПа)
Тmin
(С)
Tmax
(С)
R
(мм)
R24
(мм)
S
(см)
12 10.11 СЗ 2 10 км 4/4 1000 м
[Sc]
+26.0 +22.4 81 +34 +34 очень
душно
1010.6 984.6 +30.3
15 10.11 штиль 0 10 км 4/4 1000 м
[Sc]
+25.5 +22.5 83 +33 +33 очень
душно
1012.8 986.8
18 10.11 штиль 0 10 км 6/0
[Cs]
+24.2 +22.4 90 +32 +32 очень
душно
1011.9 985.8
21 10.11 штиль 0 10 км 6/0
[Ac trans Cs]
+23.5 +22.3 93 +31 +31 очень
душно
1011.3 985.2
00 11.11 штиль 0 11 км 8/0
[Ac und Cs]
+23.4 +22.0 92 +32 +32 очень
душно
1012.5 986.3 +23.2
03 11.11 В 6 15 км 6/0
[Ac trans Cs]
+27.0 +19.3 63 +33 +35 очень
душно
1012.7 986.8
06 11.11 СВ 2 15 км 6/0
[Ac trans Cs]
+30.0 +21.0 59 +38 +47 очень
душно
1009.5 984.0
09 11.11 СВ 2 15 км 6/0
[Ac trans Cs]
+31.0 +21.7 58 +39 +42 очень
душно
1008.3 982.9
12 11.11 З 2 12 км 6/0
[Ac trans Cs]
+26.8 +22.0 75 +35 +35 очень
душно
1009.9 984.1 +32.2
15 11.11 СЗ 4 9000 м слабый дождь 10/4 600 м
[Sc Ac As Cs]
+25.6 +22.5 83 +34 +34 очень
душно
1011.8 985.8 0.0
18 11.11 В 3 10 км пыль {дождь} 8/0
[Ac trans Cs]
+23.7 +21.1 85 +30 +30 очень
душно
1011.4 985.3
21 11.11 штиль 0 9000 м дымка 10/0
[Ac trans Cs]
+24.2 +22.7 91 +32 +32 очень
душно
1010.0 984.0
00 12.11 штиль 0 10 км 6/0
[Ac trans Cs]
+23.7 +21.9 90 +31 +31 очень
душно
1011.7 985.6 +23.5
03 12.11 В 3 12 км 1/1 1000 м
[Cu hum]
+30.0 +21.9 62 +39 +46 очень
душно
1011.4 985.7
06 12.11 штиль 0 12 км 4/3 600 м
[Sc diur, vesp Ac As Ci fib]
+32.5 +22.3 55 +42 +54 опасность
перегрева
1008.6 983.2
09 12.11 ЮВ 2 12 км 6/3 600 м
[Sc diur, vesp Ac As Ci fib]
+30.9 +23.1 63 +41 +43 опасность
перегрева
1007.1 981.7
12 12.11 СЗ 2 12 км 5/3 600 м
[Sc diur, vesp Ac As Cs]
+27.7 +24.7 84 +39 +39 очень
душно
1009.0 983.3 +33.5
15 12.11 штиль 0 10 км 5/3 600 м
[Sc diur, vesp Ac As Cs]
+26.5 +24.3 88 +37 +37 очень
душно
1011.0 985.1
18 12.11 штиль 0 9000 м дымка 3/0
[Ac As Ci fib]
+25.2 +24.5 96 +35 +35 очень
душно
1010.2 984.2
21 12.11 штиль 0 8000 м дымка 4/0
[Cs]
+24.9 +24.6 98 +35 +35 очень
душно
1008.6 982.7
00 13.11 штиль 0 8000 м дымка 10/5 600 м
[Sc Ac As Cs]
+24.4 +23.8 96 +33 +33 очень
душно
1010.5 984.4 +24.0
03 13.11 СЗ 2 9000 м дымка {дождь} 9/3 600 м
[Sc Ac As Cs]
+25.5 +24.0 91 +35 +39 очень
душно
1011.3 985.3 0.0
06 13.11 СВ 2 12 км {дождь} 6/4 1000 м
[Sc Cs]
+30.7 +25.0 72 +44 +52 опасность
перегрева
1007.2 981.7 0.2
09 13.11 штиль 0 12 км 5/5 1000 м
[Sc]
+31.0 +23.8 66 +43 +45 опасность
перегрева
1005.8 980.4
12 13.11 штиль 0 10 км 6/3 1000 м
[Sc Cs]
+27.0 +24.1 84 +37 +37 очень
душно
1006.7 980.9 +31.5
15 13.11 штиль 0 10 км 6/3 1000 м
[Sc Cs]
+25.7 +22.9 85 +34 +34 очень
душно
1009.3 983.4
18 13.11 штиль 0 10 км 8/3 1000 м
[Sc Cs]
+25.0 +22.8 88 +33 +33 очень
душно
1009.2 983.2
21 13.11 штиль 0 10 км 6/3 1000 м
[Sc Cs]
+24.5 +23.3 93 +33 +33 очень
душно
1008.1 982.1
00 14.11 штиль 0 9000 м дымка 4/4 1000 м
[Sc Ci fib]
+24.0 +23.3 96 +32 +32 очень
душно
1009.8 983.7 +23.8
03 14.11 В 3 14 км 10/4 600 м
[Sc Ac trans Cs]
+29.0 +22.7 69 +38 +41 очень
душно
1010.8 985.1
06 14.11 В 4 15 км 6/4 600 м
[Cu med, cong Cs]
+29.6 +23.5 70 +40 +45 очень
душно
1007.5 981.9
09 14.11 В 3 15 км 4/4 600 м
[Cu med, cong]
+30.0 +22.4 64 +39 +41 очень
душно
1006.5 981.0
12 14.11 штиль 0 12 км 3/0
[Cs]
+27.0 +22.6 77 +36 +36 очень
душно
1007.9 982.1 +33.6
15 14.11 штиль 0 11 км 3/0
[Cs]
+25.5 +20.1 72 +31 +31 очень
душно
1010.6 984.7
18 14.11 штиль 0 10 км 3/0
[Cs]
+24.6 +22.8 90 +33 +33 очень
душно
1009.5 983.4
21 14.11 штиль 0 9000 м дымка 3/0
[Cs]
+24.1 +22.9 93 +32 +32 очень
душно
1008.8 982.7
00 15.11 С 2 9000 м дымка 3/0
[Ac trans]
+23.3 +22.4 95 +32 +32 очень
душно
1010.8 984.6 +23.0
03 15.11 Ю 2 12 км 6/3 600 м
[Sc diur, vesp Ac As Cs]
+30.0 +23.5 68 +41 +46 опасность
перегрева
1011.9 986.2
06 15.11 СЗ 2 12 км 6/4 600 м
[Sc diur, vesp Ac As Ci fib]
+33.2 +22.8 55 +43 +50 опасность
перегрева
1009.2 983.9
09 15.11 С 2 12 км 5/3 600 м
[Sc diur, vesp Ac As Ci fib]
+32.5 +23.1 58 +43 +45 опасность
перегрева
1007.8 982.5
12 15.11 В 2 11 км 3/1 600 м
[Sc diur, vesp Ac As Ci fib]
+28.3 +24.4 79 +40 +40 очень
душно
1009.2 983.5 +34.2
15 15.11 штиль 0 11 км 3/0
[Ac trans Ci fib]
+26.2 +24.8 92 +37 +37 очень
душно
1011.2 985.3
18 15.11 штиль 0 9000 м дымка 3/0
[Ac trans Cs]
+25.1 +24.4 96 +35 +35 очень
душно
1010.8 984.7
21 15.11 штиль 0 8000 м дымка 3/0
[Cs]
+24.5 +24.3 99 +34 +34 очень
душно
1010.4 984.3
00 16.11 штиль 0 9000 м дымка ясно +25.4 +23.5 89 +34 +35 очень
душно
1011.1 985.1 +24.2
03 16.11 Ю 2 12 км 1/1 1000 м
[Cu hum]
+30.0 +23.5 68 +41 +49 опасность
перегрева
1012.4 986.7
06 16.11 В 3 12 км 6/6 1000 м
[Sc]
+33.4 +23.5 56 +44 +49 опасность
перегрева
1008.6 983.3
09 16.11 ЮВ 2 12 км 4/4 1000 м
[Sc]
+34.0 +23.2 53 +44 +46 опасность
перегрева
1006.5 981.3
12 16.11 штиль 0 10 км ясно +29.0 +23.9 74 +40 +40 очень
душно
1008.3 982.7 +34.5
15 16.11 штиль 0 10 км ясно +26.2 +23.7 86 +36 +36 очень
душно
1010.8 984.9
18 16.11 штиль 0 10 км ясно +24.0 +22.5 91 +31 +31 очень
душно
1010.2 984.1
21 16.11 штиль 0 10 км ясно +24.0 +23.3 96 +32 +32 очень
душно
1009.5 983.5
00 17.11 С 2 9000 м дымка 1/0
[Ci fib]
+23.8 +23.4 98 +32 +32 очень
душно
1011.2 985.1 +23.4
03 17.11 СЗ 3 9000 м дымка 1/1 1000 м
[Cu hum]
+30.5 +24.7 71 +43 +50 опасность
перегрева
1011.6 986.1
06 17.11 СЗ 2 11 км 6/6 1000 м
[Sc]
+32.2 +23.6 61 +44 +49 опасность
перегрева
1008.9 983.5

 

Местоположение метеостанции Nongbualamphu (Таиланд): широта 17.23 долгота 102.43 высота над уровнем моря 228 м.

В архиве по умолчанию представлена погода в Nongbualamphu за последнюю неделю. Архивные данные за месяц целиком и за предыдущие месяцы, начиная с января 2011 года, Вы можете получить, выбрав интересующий диапазон дат из раскрывающегося списка и нажав кнопку "Ввод!".


*Определитесь, кто Вы:
робот инопланетянин человек

Внимание! Время в таблицах - всемирное. Для получения местного времени необходимо прибавить поправку, которая в Nongbualamphu равна 7 ч.

Смотрите также архив погоды в соседних городах и на ближайших метеорологических станциях:

Погода в Udon Thani (Таиланд) (43 км)
Погода в Loei Agromet (Таиланд) (77 км)
Погода в Nong Khai (Таиланд) (77 км)
Погода в Loei (Таиланд) (78 км)
Погода в Vientiane (Лаос) (85 км)
Погода в Khon Kaen (Таиланд) (99 км)
Погода в Tha Phra Agromet (Таиланд) (108 км)
Погода в Thangone (Лаос) (119 км)
Погода в Kosumphisai (Таиланд) (130 км)
Погода в Lomsak (Таиланд) (136 км)

Пояснения к столбцам:

Ветер - указаны скорость ветра в м/с - средняя за 10 мин, порывы в срок и между сроками (в фигурных скобках) и направление, откуда дует ветер: С - северный, СВ - северо-восточный, В - восточный, ЮВ - юго-восточный, Ю - южный, ЮЗ - юго-западный, З - западный, СЗ - северо-западный.
Видимость - горизонтальная дальность видимости в метрах или километрах. При видимости от 1 до 10 км при отсутствии осадков обычно наблюдается дымка, при ухудшении видимости до 1 км и менее - туман. В сухую погоду видимость может ухудшаться дымом, пылью или мглою.
Явления - указаны атмосферные явления, наблюдавшиеся в срок или в последний час перед сроком; фигурными скобками обозначены явления, наблюдавшиеся между сроками (за 1-3 часа до срока); квадратными скобками обозначены град или гололедные отложения с указанием их диаметра в мм.
Облачность - указаны через наклонную черту общая и нижняя облачность в баллах и высота нижней границы облаков в метрах; квадратными скобками обозначены формы облаков: Ci - перистые, Cs - перисто-слоистые, Cc - перисто-кучевые, Ac - высококучевые, As - высокослоистые, Sc - слоисто-кучевые, Ns - слоисто-дождевые, Cu - кучевые, Cb - кучево-дождевые. Подробнее классификацию облаков см. в Атласе облаков (PDF).
T - Температура воздуха - температура, измеренная на высоте 2 м над землей.
Td - Температура точки росы - температура, при понижении до которой содержащийся в воздухе водяной пар достигнет насыщения.
f - Относительная влажность воздуха - влажноcть воздуха, измеренная на высоте 2 м над землей.
Te - Эффективная температура - температура, которую ощущает одетый по сезону человек в тени. Характеристика душности погоды. При расчете учитывается влияние влажности воздуха и скорости ветра на теплоощущения человека.
Tes - Эффективная температура на солнце - температура, которую ощущает человек, с поправкой на солнечный нагрев. Характеристика знойности погоды. Зависит от высоты солнца над горизонтом, облачности и скорости ветра. Ночью, в пасмурную погоду, а также при ветре 12 м/с и более поправка равна нулю.
P - Атмосферное давление - приведенное к уровню моря атмосферное давление.
Po - Атмосферное давление - измеренное на уровне метеостанции атмосферное давление.
Tmin - Минимальная температура - минимум температуры воздуха на высоте 2 м над землей.
Tmax - Максимальная температура - максимум температуры воздуха на высоте 2 м над землей.
R - Количество осадков - Количество выпавших осадков за период времени, мм. При наведении курсора мыши на число - период времени, за который выпало указанное количество осадков.
R24 - Количество осадков - Количество выпавших осадков за 24 часа, мм.
S - Снежный покров - Высота снежного покрова, см. При наведении курсора мыши на число - состояние снежного покрова и степень покрытия местности в баллах.